Location: Bremen
(53.0793°N, 8.8017°E)
Time: 21:31:59
(UTC+02:00)

Transit 4A - All Passes

Search period start: 19 April 2024 00:00
Search period end: 29 April 2024 00:00
Orbit: 871 x 972 km, 66.8° (Epoch: 18 April)

Date Brightness Start Highest point End Pass type
(mag) Time Alt. Az. Time Alt. Az. Time Alt. Az.
19 Apr - 00:01:37 10° NW 00:06:35 30° WSW 00:11:34 10° S visible
19 Apr - 13:28:50 10° SSE 13:33:32 24° ESE 13:38:10 10° ENE daylight
19 Apr - 15:13:17 10° SW 15:19:17 83° NW 15:25:11 10° NE daylight
19 Apr - 17:01:15 10° W 17:06:25 30° NNW 17:11:33 10° NE daylight
19 Apr - 18:50:10 10° NW 18:54:34 21° N 18:58:57 10° NE daylight
19 Apr - 20:37:31 10° NW 20:42:42 31° NNE 20:47:52 10° E daylight
19 Apr - 22:23:53 10° NW 22:29:45 89° NE 22:35:37 10° SE visible
20 Apr - 00:11:06 10° WNW 00:15:23 22° WSW 00:19:40 10° SSW visible
20 Apr - 13:37:05 10° S 13:42:21 34° ESE 13:47:34 10° NE daylight
20 Apr - 15:22:29 10° SW 15:28:24 64° NW 15:34:15 10° NE daylight
20 Apr - 17:10:54 10° WNW 17:15:49 26° NNW 17:20:42 10° NE daylight
20 Apr - 18:59:37 10° NW 19:04:04 22° N 19:08:30 10° NE daylight
20 Apr - 20:46:36 10° NW 20:52:02 37° NNE 20:57:26 10° E daylight
20 Apr - 22:32:58 10° NW 22:38:47 69° SW 22:44:35 10° SSE visible
21 Apr - 00:20:55 10° WNW 00:24:06 15° WSW 00:27:17 10° SW visible
21 Apr - 13:45:35 10° S 13:51:14 46° ESE 13:56:49 10° NE daylight
21 Apr - 15:31:49 10° WSW 15:37:36 50° NW 15:43:18 10° NE daylight
21 Apr - 17:20:33 10° WNW 17:25:14 24° NNW 17:29:55 10° NE daylight
21 Apr - 19:08:57 10° NW 19:13:33 23° NNE 19:18:07 10° ENE daylight
21 Apr - 20:55:41 10° NW 21:01:18 46° NE 21:06:55 10° ESE daylight
21 Apr - 22:42:08 10° NW 22:47:45 51° WSW 22:53:23 10° SSE visible
22 Apr - 12:12:13 10° SE 12:14:57 13° ESE 12:17:40 10° ENE daylight
22 Apr - 13:54:18 10° SSW 14:00:11 62° ESE 14:05:59 10° NE daylight
22 Apr - 15:41:15 10° WSW 15:46:50 41° NW 15:52:21 10° NE daylight
22 Apr - 17:30:12 10° WNW 17:34:43 22° N 17:39:12 10° NE daylight
22 Apr - 19:18:12 10° NW 19:23:00 25° NNE 19:27:46 10° ENE daylight
22 Apr - 21:04:44 10° NW 21:10:31 58° NE 21:16:17 10° ESE visible
22 Apr - 22:51:21 10° NW 22:56:39 37° WSW 23:01:59 10° S visible
23 Apr - 12:19:35 10° SSE 12:23:40 19° ESE 12:27:42 10° ENE daylight
23 Apr - 14:03:14 10° SW 14:09:12 83° SE 14:15:05 10° NE daylight
23 Apr - 15:50:48 10° W 15:56:08 34° NNW 16:01:26 10° NE daylight
23 Apr - 17:39:47 10° NW 17:44:12 21° N 17:48:36 10° NE daylight
23 Apr - 19:27:24 10° NW 19:32:24 28° NNE 19:37:25 10° E daylight
23 Apr - 21:13:48 10° NW 21:19:39 75° NE 21:25:31 10° SE visible
23 Apr - 23:00:42 10° NW 23:05:29 27° WSW 23:10:19 10° SSW visible
24 Apr - 12:27:34 10° SSE 12:32:27 27° ESE 12:37:16 10° NE daylight
24 Apr - 14:12:19 10° SW 14:18:17 76° NW 14:24:10 10° NE daylight
24 Apr - 16:00:25 10° W 16:05:30 29° NNW 16:10:33 10° NE daylight
24 Apr - 17:49:17 10° NW 17:53:42 21° N 17:58:05 10° NE daylight
24 Apr - 19:36:30 10° NW 19:41:46 33° NNE 19:47:01 10° E daylight
24 Apr - 21:22:52 10° NW 21:28:44 84° SW 21:34:36 10° SE visible
24 Apr - 23:10:15 10° WNW 23:14:15 19° WSW 23:18:17 10° SSW visible
25 Apr - 12:35:53 10° S 12:41:16 37° ESE 12:46:36 10° NE daylight
25 Apr - 14:21:32 10° WSW 14:27:25 59° NW 14:33:13 10° NE daylight
25 Apr - 16:10:04 10° WNW 16:14:54 25° NNW 16:19:43 10° NE daylight
25 Apr - 17:58:42 10° NW 18:03:10 22° N 18:07:39 10° ENE daylight
25 Apr - 19:45:36 10° NW 19:51:05 40° NE 19:56:34 10° ESE daylight
25 Apr - 21:31:59 10° NW 21:37:45 63° WSW 21:43:31 10° SSE visible
25 Apr - 23:20:17 10° WNW 23:22:58 13° WSW 23:25:40 10° SW visible
26 Apr - 12:44:27 10° SSW 12:50:11 50° ESE 12:55:49 10° NE daylight
26 Apr - 14:30:55 10° WSW 14:36:37 47° NW 14:42:16 10° NE daylight
26 Apr - 16:19:44 10° WNW 16:24:21 23° NNW 16:28:56 10° NE daylight
26 Apr - 18:08:00 10° NW 18:12:39 23° NNE 18:17:16 10° ENE daylight
26 Apr - 19:54:39 10° NW 20:00:19 49° NE 20:06:00 10° ESE daylight
26 Apr - 21:41:08 10° NW 21:46:41 46° WSW 21:52:15 10° S visible
27 Apr - 11:10:36 10° SE 11:13:49 15° ESE 11:17:01 10° ENE daylight
27 Apr - 12:53:14 10° SSW 12:59:09 68° SE 13:04:58 10° NE daylight
27 Apr - 14:40:23 10° W 14:45:53 38° NNW 14:51:19 10° NE daylight
27 Apr - 16:29:21 10° WNW 16:33:49 22° N 16:38:16 10° NE daylight
27 Apr - 18:17:14 10° NW 18:22:04 26° NNE 18:26:55 10° ENE daylight
27 Apr - 20:03:42 10° NW 20:09:31 63° NE 20:15:19 10° SE daylight
27 Apr - 21:50:24 10° NW 21:55:34 34° WSW 22:00:46 10° S visible
28 Apr - 11:18:12 10° SSE 11:22:32 21° ESE 11:26:51 10° ENE daylight
28 Apr - 13:02:12 10° SW 13:08:10 89° SE 13:14:04 10° NE daylight
28 Apr - 14:49:56 10° W 14:55:12 32° NNW 15:00:24 10° NE daylight
28 Apr - 16:38:55 10° NW 16:43:18 21° N 16:47:41 10° NE daylight
28 Apr - 18:26:23 10° NW 18:31:28 30° NNE 18:36:33 10° E daylight
28 Apr - 20:12:46 10° NW 20:18:38 81° NE 20:24:31 10° SE daylight
28 Apr - 21:59:47 10° WNW 22:04:23 25° WSW 22:09:00 10° SSW visible
